Temperature
15 16 16 16 19 19 19 19 19 18 17 16 16 17 18 18 18 17 13 13 13 14 13 13 13 13 13 13 13 13 13 13 13 13 13 13 14 14 14 14 14 14 14 14 14 15 15 15 15
15 15 16 17 19 19 19 19 18 18 16 14 14 15 16 15 12 12 12 13 13 13 13 13 13 13 13 13 13 13 13 13 13 13 13 13 13 13 14 14 14 14 14 14 14 14 14 14 14
15 15 16 18 19 20 19 18 18 16 15 15 15 14 14 13 11 11 12 13 12 13 13 13 13 13 13 13 13 13 13 13 13 13 13 13 13 13 13 13 13 13 13 14 14 14 14 14 14
15 15 16 18 18 18 18 17 16 16 15 14 15 14 11 11 11 12 12 12 12 12 12 13 12 12 12 13 12 12 12 13 12 12 12 13 13 13 13 13 13 13 13 13 13 13 14 14 14
14 16 17 17 17 17 17 16 15 16 16 14 14 14 12 11 11 12 12 12 12 12 12 12 12 12 12 12 12 12 12 12 12 12 12 12 12 12 12 13 13 13 13 13 13 13 13 13 13
15 17 17 18 17 16 16 14 15 16 15 14 14 14 12 11 11 12 12 12 12 12 12 12 12 12 12 12 12 12 12 12 12 12 12 12 12 12 12 12 12 12 12 12 13 13 13 13 13
15 17 17 17 17 16 15 14 15 15 15 13 12 14 11 10 11 11 11 11 11 11 11 11 11 11 11 11 11 11 11 12 12 12 12 12 12 12 12 12 12 12 12 12 12 12 13 13 13
14 16 16 16 16 16 14 13 13 14 13 10 11 13 12 10 10 10 10 11 11 11 11 11 11 11 11 11 11 11 11 11 11 11 11 11 11 11 11 11 11 11 11 11 12 12 12 12 12
13 15 16 16 16 15 13 13 11 10 10 9 9 9 9 10 10 10 10 10 10 10 10 11 11 11 10 11 11 11 11 11 11 11 11 11 11 11 11 11 11 11 11 11 11 11 11 12 12
13 15 15 14 14 14 13 13 11 11 11 10 8 8 9 9 9 9 9 9 10 10 10 10 10 10 10 10 10 10 10 10 10 11 11 11 11 11 11 11 11 11 11 11 11 11 11 11 11
13 14 13 12 11 12 12 11 10 12 12 11 10 8 8 9 9 9 9 9 9 9 9 9 9 10 10 10 10 10 10 10 10 10 10 10 10 10 10 10 10 10 10 10 10 10 10 10 10
12 11 10 10 9 10 10 10 9 10 10 9 8 8 8 8 8 8 8 8 9 9 9 9 9 9 9 9 9 9 9 9 10 10 10 10 10 10 10 10 10 10 10 10 10 10 10 10 10
11 10 8 8 8 8 8 9 9 8 7 7 7 7 7 7 7 8 8 8 8 8 8 8 8 8 8 8 9 9 9 9 9 9 9 9 9 9 9 9 9 9 9 9 9 9 9 9 9
10 9 9 8 8 8 8 8 8 8 7 6 6 6 6 6 6 7 7 7 7 7 8 8 8 8 8 8 8 8 8 8 8 8 9 9 9 9 9 9 9 8 8 9 8 8 8 8 8
8 9 10 9 8 8 8 9 9 7 6 6 5 5 5 5 6 6 6 6 6 7 7 7 7 7 7 7 8 8 8 8 8 8 8 8 8 8 8 8 8 8 8 8 8 8 8 8 8
9 10 11 10 8 8 9 11 10 6 5 6 5 4 4 4 5 5 5 6 6 6 6 6 6 7 7 7 7 7 7 7 7 7 7 7 7 8 8 8 7 7 7 7 7 7 7 7 7
10 11 11 10 8 8 9 10 9 5 5 6 5 4 4 3 4 4 5 5 5 5 5 6 6 6 6 6 6 6 6 7 7 6 6 7 7 7 7 7 7 7 7 7 7 6 7 7 7
11 11 10 10 9 8 8 9 8 5 5 5 5 4 3 3 3 4 4 5 5 5 5 5 5 5 5 5 6 6 6 6 6 6 6 6 6 6 6 6 6 6 6 6 6 6 6 6 6
10 10 10 10 8 8 8 9 9 6 5 5 5 4 3 3 3 3 4 4 4 4 4 4 4 5 5 5 5 5 5 5 5 5 5 5 6 6 6 6 5 5 5 6 5 5 5 5 5
8 9 9 9 7 7 8 8 8 7 5 5 4 4 3 2 2 2 3 3 4 4 4 4 4 4 4 4 4 4 4 5 5 5 5 5 5 5 5 5 5 5 5 5 5 5 5 5 4
8 8 8 8 7 6 6 9 9 6 4 3 3 3 2 2 2 2 2 3 3 3 4 4 3 4 4 3 3 3 3 4 4 4 4 4 4 4 4 4 4 4 4 4 4 4 4 4 4
8 7 7 7 7 8 7 9 10 7 5 4 3 2 2 1 1 1 2 2 2 3 3 3 3 3 3 3 3 3 3 3 3 3 4 3 4 4 4 4 4 4 4 3 3 3 3 3 3
7 6 6 6 6 7 6 7 10 6 6 5 4 2 2 1 1 1 1 2 2 2 2 2 2 2 2 2 2 2 2 2 2 3 3 3 3 3 3 3 3 3 3 3 3 3 3 3 3
5 5 5 5 6 6 7 7 9 8 6 6 4 2 1 1 1 1 1 1 1 1 2 2 2 1 2 2 2 2 2 2 2 2 2 2 2 2 2 2 2 2 2 2 2 2 2 2 2
5 6 7 7 7 8 6 6 8 7 4 4 3 2 1 0 0 1 1 1 1 1 1 1 1 1 1 1 1 1 1 1 1 1 1 1 1 1 1 1 1 1 1 1 1 1 1 1 1
5 6 7 8 9 9 6 6 8 4 2 2 1 1 0 0 0 0 0 0 0 1 1 1 0 0 0 0 0 0 0 0 0 0 0 0 0 1 1 0 0 1 1 1 1 1 1 1 1
5 5 5 6 5 5 8 7 6 3 2 1 1 0 0 -0 -0 -0 -0 -0 -0 -0 0 -0 -0 -0 -0 -0 -0 -0 -0 -0 -0 -0 -0 -0 -0 -0 -0 -0 -0 -0 -0 -0 -0 -0 -0 -0 -0
4 4 4 5 5 7 8 7 8 5 4 2 1 0 -0 -0 -1 -1 -1 -1 -1 -1 -1 -1 -1 -1 -1 -1 -1 -1 -1 -1 -1 -1 -1 -1 -1 -1 -1 -1 -1 -1 -1 -1 -1 -1 -1 -1 -1
3 3 4 5 5 6 7 8 6 5 3 2 1 0 -0 -1 -1 -1 -1 -1 -1 -1 -1 -2 -2 -2 -2 -2 -2 -2 -2 -2 -2 -2 -2 -2 -2 -2 -2 -1 -2 -2 -2 -2 -2 -2 -2 -1 -1
3 3 4 4 4 3 5 7 2 2 1 1 0 -1 -1 -1 -1 -1 -1 -2 -2 -2 -2 -2 -2 -2 -2 -2 -3 -2 -3 -3 -2 -2 -2 -2 -2 -2 -2 -2 -2 -2 -2 -2 -2 -2 -2 -2 -2
Wind_Speed
3 1 2 2 4 4 7 5 4 4 4 2 2 2 3 2 1 2 3 3 3 1 0 2 4 5 6 7 8 8 8 9 9 9 9 9 9 9 10 11 11 11 11 12 13 13 13 14 14
1 1 2 3 6 8 7 6 7 4 4 4 3 2 3 2 2 3 2 3 3 1 1 2 5 6 6 7 8 8 9 8 8 8 9 9 9 9 10 11 11 11 11 12 12 13 14 14 14
1 1 2 3 6 9 6 5 6 4 4 4 4 1 1 2 2 2 3 2 1 2 3 3 5 6 7 7 7 8 8 8 8 8 8 9 9 9 10 10 11 11 11 13 13 13 14 14 14
2 2 2 6 9 7 5 4 5 7 4 3 4 4 2 3 2 2 3 1 2 3 3 4 5 5 6 7 7 7 7 8 8 8 8 9 9 10 10 11 11 10 12 13 13 14 14 14 13
2 3 6 8 9 6 4 3 5 6 5 4 4 4 3 3 3 3 2 2 3 3 4 5 6 6 6 7 7 6 6 7 8 8 8 8 9 9 10 11 11 11 11 12 13 13 13 13 13
4 4 8 11 10 7 5 4 5 5 5 4 4 4 3 3 3 3 2 3 3 3 4 5 6 6 6 6 7 7 6 7 7 7 8 8 9 9 10 11 11 11 11 12 13 13 13 13 13
5 5 9 10 10 9 6 5 6 6 6 4 3 4 4 3 2 2 3 3 4 4 4 5 5 5 5 6 6 6 7 7 7 8 7 8 8 9 10 10 10 10 11 12 13 13 13 13 13
2 4 7 9 10 9 6 5 3 5 5 2 2 4 4 2 2 3 3 3 4 4 5 5 5 4 4 4 6 7 7 7 7 8 7 8 9 9 9 9 9 10 10 11 12 12 13 13 13
2 6 10 10 9 7 7 6 4 2 4 3 2 0 2 5 5 4 3 3 3 3 4 5 5 4 3 4 5 6 7 7 7 7 7 6 6 7 7 9 10 9 10 10 11 11 12 12 11
4 8 10 5 5 5 6 6 5 6 6 4 4 2 4 6 6 5 4 3 2 2 3 4 4 4 3 4 4 4 4 4 5 5 5 4 5 6 6 9 10 10 10 10 10 10 9 8 7
3 7 5 4 3 4 5 5 5 7 7 7 6 6 6 6 6 5 4 3 2 1 1 2 3 3 4 3 3 3 3 3 3 4 4 3 4 5 5 5 6 7 8 7 8 7 6 6 5
4 3 3 3 2 4 5 4 4 6 5 1 4 7 7 7 6 5 4 3 1 1 1 1 2 3 3 3 3 3 3 3 3 3 4 3 3 3 3 4 4 4 4 5 4 4 5 6 5
6 4 3 2 1 2 3 5 5 6 4 3 5 6 7 6 5 4 3 3 1 1 0 1 2 2 2 3 3 3 3 2 2 3 3 3 3 2 3 3 3 4 4 4 4 4 5 5 5
2 4 4 4 4 3 5 6 6 8 5 5 5 6 6 6 5 4 3 2 2 1 0 1 1 2 2 3 3 2 2 2 2 2 3 3 3 2 2 3 3 3 3 3 4 4 4 4 4
2 3 4 5 6 5 4 9 11 8 7 6 6 6 6 5 5 4 4 3 2 1 1 1 1 2 2 3 3 2 2 2 2 2 2 3 3 2 2 2 2 2 3 3 4 4 4 3 3
3 4 6 5 5 5 7 13 7 6 8 9 8 7 6 5 5 4 3 2 2 1 1 1 1 2 2 2 2 2 2 2 2 2 2 2 2 2 2 2 2 3 3 3 3 3 3 3 2
5 7 8 5 5 5 9 11 5 6 8 9 9 8 7 6 5 4 3 3 2 1 1 1 1 2 2 2 2 2 2 2 2 2 2 2 2 2 2 2 2 3 3 2 2 2 2 2 2
6 7 7 7 4 7 11 13 8 7 8 10 10 9 8 7 6 5 4 3 2 2 1 2 2 2 2 2 2 2 2 2 2 2 2 1 1 2 2 2 3 3 3 2 2 2 2 2 2
5 7 9 7 3 6 13 16 13 10 11 11 11 10 9 7 6 5 4 3 2 2 1 1 2 2 2 2 2 2 1 1 1 2 2 1 1 1 2 1 2 2 3 3 3 3 3 2 2
7 9 9 6 3 6 10 16 14 11 13 12 11 10 9 8 6 5 4 4 3 3 2 1 2 2 2 2 2 1 1 1 1 1 1 1 1 1 1 2 1 2 2 3 4 4 2 2 2
9 10 10 8 5 5 8 12 11 8 10 10 10 10 9 9 7 6 5 5 4 3 3 2 2 2 2 2 2 2 2 1 1 0 0 1 0 1 1 2 2 2 2 4 4 5 4 4 3
9 6 8 8 7 6 4 8 8 7 8 10 10 10 10 8 7 6 5 5 5 4 3 3 2 2 2 2 3 4 3 2 2 2 1 1 0 0 1 2 2 2 2 3 4 4 4 4 4
4 2 5 6 7 8 7 8 9 5 8 11 10 10 9 8 7 6 6 5 5 4 3 2 2 1 1 2 4 5 4 3 2 2 2 2 1 1 1 1 2 2 2 3 4 4 4 4 4
2 2 3 3 5 8 9 10 9 6 7 6 8 8 8 7 6 6 5 4 4 3 3 2 2 2 1 1 3 4 4 3 3 3 3 2 1 1 2 2 2 3 3 3 4 4 5 5 5
3 4 4 5 6 8 5 8 10 3 4 4 5 6 7 7 6 5 5 4 3 3 3 3 3 2 2 2 2 3 4 4 4 3 3 3 2 2 2 2 3 3 3 4 4 5 5 6 6
6 6 6 6 7 7 6 9 7 3 3 3 4 4 5 6 6 5 5 4 4 3 3 3 3 3 2 3 2 2 3 3 3 3 3 3 3 3 3 4 4 4 4 4 4 4 5 5 6
5 7 5 5 6 8 8 8 7 5 5 5 5 5 5 6 6 5 4 4 4 3 3 3 3 3 3 3 2 2 3 3 3 3 3 3 3 3 3 4 4 4 4 4 5 4 5 5 5
4 4 4 6 6 9 9 9 7 5 6 6 7 7 6 5 5 5 4 4 4 3 3 3 3 3 3 3 2 2 3 3 3 3 3 3 3 3 3 4 4 4 4 4 5 5 5 5 5
6 6 6 5 5 6 8 7 2 5 4 6 7 6 6 5 5 5 4 4 4 3 3 3 3 3 3 3 3 3 3 3 3 3 3 4 3 3 4 4 4 4 4 5 5 5 5 6 6
6 8 9 7 7 6 8 8 2 2 2 3 4 4 5 5 5 4 3 3 4 4 3 3 3 3 3 3 3 3 3 2 2 3 3 3 3 4 4 4 5 5 5 5 6 6 6 6 7
Wind_Direction
326 307 228 214 209 214 221 205 194 170 174 162 138 166 165 156 160 103 60 41 9 22 360 99 71 88 96 96 97 101 100 97 95 93 89 87 85 84 80 76 73 73 75 76 78 79 82 81 82
312 246 208 219 224 218 215 207 197 186 148 144 150 165 151 137 52 64 60 11 2 53 91 95 77 82 91 98 97 99 100 96 95 95 92 89 86 86 83 80 77 75 76 82 83 83 83 83 81
179 246 214 210 223 226 207 182 185 164 155 174 159 137 156 112 82 57 20 354 25 82 87 85 75 84 89 96 99 99 100 97 95 94 94 89 86 86 85 83 80 77 78 82 84 85 84 83 81
195 183 211 226 223 228 226 167 163 164 163 174 170 140 127 57 30 18 13 41 95 84 80 78 67 76 91 91 97 102 101 101 100 95 92 89 87 85 85 82 81 82 82 85 85 85 85 84 82
202 204 210 223 228 220 216 193 170 178 173 170 183 169 145 99 48 44 58 87 96 81 71 77 66 70 86 92 89 94 103 103 104 100 95 91 89 88 86 82 80 82 85 88 88 86 86 85 83
188 207 219 224 220 212 204 201 197 196 183 174 184 183 148 104 68 59 74 91 84 80 72 76 65 63 72 85 89 89 93 104 104 102 97 95 93 91 88 86 82 80 84 87 87 85 84 84 82
211 209 227 227 218 214 205 204 211 206 201 192 196 180 160 130 68 88 96 92 82 75 70 67 66 63 64 74 84 86 81 87 97 96 93 93 92 92 88 87 85 83 83 87 87 85 84 83 83
227 210 222 223 221 218 190 190 206 219 206 163 213 201 178 140 112 122 114 99 86 66 58 52 55 59 65 77 79 82 80 80 88 93 94 95 97 97 93 89 86 85 84 85 88 88 87 83 81
217 224 227 220 219 212 185 194 187 186 169 172 182 326 76 124 134 132 124 106 79 56 45 40 40 48 57 74 75 79 84 79 82 85 85 97 106 105 102 89 85 85 86 86 87 89 88 85 81
213 227 230 229 227 203 191 203 184 182 192 196 179 134 122 140 149 152 150 146 125 73 40 33 36 38 54 67 78 72 81 91 86 84 87 102 107 101 97 93 88 87 87 88 85 84 85 83 83
210 233 225 222 224 205 197 202 198 201 209 213 203 177 159 160 164 165 162 159 164 141 59 29 31 43 52 67 73 66 60 73 82 80 75 83 100 102 95 96 92 90 89 86 87 80 75 75 77
208 230 231 227 223 214 213 204 207 224 230 205 180 164 160 166 168 173 173 169 159 128 66 25 31 48 56 65 76 72 68 59 62 72 77 79 88 91 96 90 86 86 85 83 77 76 77 75 78
220 222 222 216 199 212 211 226 235 233 217 167 145 153 165 170 172 174 177 173 157 149 61 30 35 53 66 71 71 72 64 69 60 78 78 80 89 96 91 85 86 85 86 90 85 80 82 77 73
201 211 228 236 226 229 228 244 237 234 197 174 169 174 177 181 182 179 181 185 192 212 253 47 56 59 81 82 80 74 74 70 63 67 75 82 85 101 106 92 85 85 90 95 99 93 88 81 75
171 216 238 236 231 222 224 248 235 225 193 193 192 188 183 187 190 194 195 196 202 215 229 147 97 73 81 85 84 83 83 88 76 55 78 82 85 97 116 109 93 89 97 104 106 101 93 88 78
190 222 238 215 213 209 223 253 224 196 199 211 207 198 193 195 200 201 201 199 202 198 208 171 97 91 83 85 84 81 87 89 82 72 72 79 87 97 116 115 106 104 109 108 113 114 105 91 75
212 236 242 227 209 209 225 255 217 195 206 217 213 208 204 203 208 209 206 201 196 196 191 170 124 114 98 99 95 93 95 84 78 72 55 66 81 105 110 115 120 126 116 111 118 125 116 109 80
231 237 241 241 214 218 234 250 244 214 214 222 217 214 213 213 214 210 205 200 191 185 161 166 145 127 113 115 106 99 94 77 72 62 48 47 83 100 106 112 136 140 131 131 135 136 121 124 109
242 240 251 255 244 240 249 259 257 232 224 226 224 220 219 222 219 206 199 197 189 176 155 142 161 147 132 138 146 144 124 88 69 55 41 36 70 97 110 121 148 156 159 154 152 138 135 133 134
239 253 262 265 254 256 270 269 262 235 228 228 227 225 222 223 220 211 201 200 200 194 183 179 189 177 166 170 175 174 152 125 75 59 37 17 78 110 117 136 153 173 168 164 163 158 164 176 182
240 249 257 265 279 249 281 272 244 226 222 227 229 229 226 220 220 217 212 210 208 208 205 204 211 205 189 180 163 135 123 116 152 140 4 338 355 103 155 162 164 179 179 183 184 185 183 191 202
252 248 252 258 266 266 261 279 255 220 223 225 228 226 226 221 218 219 218 216 217 217 208 204 213 211 203 181 184 180 189 203 221 216 210 240 249 188 179 177 181 189 198 195 197 201 208 205 203
255 273 252 254 255 265 239 252 265 213 237 233 227 224 220 218 215 216 221 220 219 215 201 197 204 204 205 202 197 196 202 209 205 203 201 199 207 215 197 200 200 202 209 209 209 209 212 216 219
203 246 252 238 243 253 236 232 265 230 236 236 222 217 216 213 213 215 221 220 214 206 191 188 191 193 199 215 214 204 198 198 196 203 202 206 209 224 222 223 221 219 219 216 216 213 216 222 226
213 234 249 239 231 247 203 230 253 246 228 236 223 211 210 207 206 209 210 206 206 201 192 192 193 198 203 209 218 218 203 201 207 209 207 212 220 236 233 241 236 234 232 227 224 220 219 223 226
213 222 236 254 258 263 223 239 250 221 228 235 227 214 208 207 206 210 212 206 207 204 199 197 202 207 208 211 220 224 219 210 214 221 219 220 229 239 244 243 242 243 238 232 226 226 226 225 228
202 219 242 258 271 270 250 250 258 221 232 228 219 209 211 213 212 212 212 213 213 208 208 210 210 214 218 218 223 224 225 227 221 222 223 225 236 246 242 246 244 241 235 230 228 228 226 226 227
240 197 192 217 248 258 260 250 246 229 233 224 221 221 222 216 213 212 212 216 217 215 214 216 214 216 221 221 223 231 233 238 239 226 223 225 231 239 239 244 245 246 243 235 232 232 231 228 230
187 201 217 226 242 250 266 258 240 238 235 225 225 225 217 215 216 216 219 218 215 211 212 218 219 220 221 223 226 233 232 234 239 239 232 230 230 233 238 244 246 247 247 244 238 238 236 235 235
226 219 208 227 236 236 261 268 82 255 251 240 236 228 218 218 218 217 218 217 215 212 214 218 221 224 228 224 225 234 232 231 241 251 246 237 234 234 235 239 243 246 247 245 240 240 241 241 241
Height
1513 1514 1515 1517 1516 1512 1511 1512 1513 1516 1518 1521 1522 1522 1521 1522 1524 1531 1531 1529 1530 1531 1532 1534 1535 1536 1537 1537 1538 1538 1539 1539 1539 1539 1539 1539 1538 1538 1538 1537 1537 1536 1536 1535 1535 1535 1535 1535 1535
1513 1514 1517 1516 1511 1510 1510 1510 1514 1515 1519 1521 1522 1523 1523 1525 1527 1528 1528 1529 1530 1531 1532 1534 1535 1536 1536 1537 1538 1538 1539 1539 1539 1539 1539 1539 1539 1539 1539 1538 1538 1537 1537 1536 1536 1536 1536 1536 1537
1512 1514 1516 1512 1508 1505 1507 1511 1514 1518 1520 1521 1522 1524 1525 1527 1527 1527 1528 1529 1530 1531 1532 1533 1535 1536 1536 1537 1538 1538 1539 1539 1539 1539 1539 1539 1539 1539 1539 1539 1539 1538 1538 1537 1537 1537 1537 1537 1538
1512 1515 1515 1510 1507 1508 1508 1512 1515 1518 1520 1521 1522 1524 1526 1526 1526 1527 1527 1529 1530 1531 1532 1533 1534 1535 1536 1537 1538 1538 1539 1539 1539 1539 1539 1540 1540 1540 1540 1540 1539 1539 1539 1539 1539 1538 1538 1538 1539
1512 1513 1511 1508 1507 1509 1512 1515 1516 1515 1518 1521 1522 1522 1525 1526 1525 1526 1527 1529 1530 1531 1532 1533 1534 1535 1536 1536 1537 1537 1538 1538 1538 1539 1539 1539 1540 1540 1540 1540 1540 1540 1540 1540 1540 1539 1540 1540 1540
1512 1510 1507 1504 1505 1510 1514 1516 1516 1516 1518 1520 1522 1522 1524 1525 1525 1526 1527 1528 1529 1530 1531 1533 1534 1534 1535 1536 1536 1537 1537 1537 1538 1538 1539 1539 1539 1540 1540 1540 1540 1540 1540 1540 1540 1540 1540 1541 1540
1510 1507 1503 1502 1504 1508 1513 1516 1516 1516 1517 1520 1521 1522 1524 1524 1524 1525 1526 1528 1529 1530 1531 1532 1533 1533 1534 1535 1535 1536 1536 1536 1537 1537 1538 1539 1539 1539 1540 1540 1540 1540 1541 1541 1540 1541 1541 1541 1541
1508 1507 1504 1503 1504 1505 1512 1515 1516 1516 1517 1520 1521 1521 1522 1523 1523 1524 1526 1527 1528 1529 1530 1531 1532 1532 1533 1533 1534 1535 1535 1536 1536 1537 1538 1538 1538 1539 1539 1540 1540 1541 1541 1541 1541 1541 1542 1542 1542
1508 1507 1501 1501 1503 1505 1511 1513 1515 1516 1518 1518 1519 1520 1521 1521 1522 1524 1525 1527 1527 1528 1529 1529 1530 1531 1532 1532 1533 1533 1534 1535 1535 1536 1537 1537 1538 1538 1539 1540 1540 1540 1541 1541 1541 1541 1542 1542 1543
1506 1502 1500 1504 1505 1507 1511 1512 1514 1516 1516 1517 1518 1519 1519 1520 1521 1523 1524 1525 1525 1526 1527 1528 1528 1529 1530 1531 1531 1532 1533 1533 1534 1535 1535 1536 1536 1537 1538 1539 1540 1540 1540 1540 1541 1541 1542 1542 1543
1505 1502 1504 1508 1509 1509 1510 1512 1514 1513 1513 1515 1516 1517 1518 1519 1520 1521 1522 1523 1524 1524 1525 1526 1527 1527 1528 1529 1530 1530 1531 1532 1532 1533 1534 1534 1535 1536 1537 1538 1539 1539 1539 1540 1540 1541 1541 1542 1543
1505 1506 1507 1509 1509 1510 1510 1512 1513 1512 1513 1514 1514 1515 1516 1517 1517 1518 1519 1520 1521 1522 1523 1524 1525 1526 1527 1527 1528 1529 1529 1529 1531 1531 1532 1533 1533 1534 1535 1536 1537 1538 1538 1539 1539 1540 1541 1541 1542
1505 1507 1509 1509 1510 1510 1511 1511 1512 1511 1512 1512 1512 1513 1514 1515 1515 1516 1517 1518 1519 1520 1521 1522 1523 1524 1525 1525 1526 1527 1527 1528 1529 1530 1530 1531 1532 1533 1534 1534 1535 1536 1537 1537 1538 1539 1540 1540 1541
1506 1507 1508 1509 1509 1510 1511 1510 1511 1509 1510 1511 1511 1512 1512 1513 1514 1514 1515 1516 1517 1517 1518 1519 1520 1521 1522 1523 1524 1525 1526 1527 1527 1528 1529 1529 1530 1531 1531 1532 1533 1534 1535 1536 1537 1537 1538 1539 1540
1507 1507 1506 1507 1508 1509 1511 1507 1506 1506 1508 1509 1509 1510 1510 1511 1512 1512 1512 1513 1514 1515 1516 1517 1518 1519 1520 1521 1522 1523 1524 1525 1525 1526 1527 1527 1528 1529 1529 1530 1531 1532 1533 1534 1535 1536 1537 1538 1538
1506 1503 1500 1503 1506 1507 1510 1496 1501 1504 1506 1506 1507 1508 1508 1509 1509 1510 1510 1511 1512 1513 1513 1514 1515 1516 1517 1518 1520 1521 1522 1523 1523 1524 1524 1525 1526 1527 1527 1528 1528 1529 1530 1531 1532 1534 1535 1535 1536
1501 1496 1494 1499 1503 1505 1504 1494 1499 1502 1503 1504 1505 1505 1506 1506 1506 1507 1508 1509 1509 1510 1511 1512 1513 1513 1515 1516 1517 1518 1519 1520 1521 1522 1522 1523 1523 1524 1525 1525 1526 1527 1528 1529 1530 1531 1532 1533 1534
1494 1493 1494 1494 1499 1502 1500 1494 1497 1500 1501 1501 1502 1503 1503 1503 1504 1505 1505 1506 1507 1507 1508 1509 1510 1511 1512 1513 1514 1515 1517 1517 1518 1519 1520 1520 1521 1521 1522 1523 1523 1524 1525 1526 1527 1528 1530 1531 1532
1496 1495 1493 1494 1500 1501 1495 1491 1492 1495 1497 1497 1498 1499 1500 1500 1501 1502 1502 1503 1504 1504 1505 1506 1507 1508 1509 1509 1510 1511 1513 1514 1515 1516 1516 1517 1518 1518 1519 1520 1520 1521 1522 1523 1524 1525 1527 1528 1529
1498 1496 1493 1495 1501 1499 1493 1488 1486 1489 1491 1492 1494 1494 1496 1497 1497 1498 1499 1500 1500 1501 1502 1503 1503 1504 1505 1506 1508 1508 1509 1510 1512 1512 1513 1514 1515 1515 1516 1516 1517 1518 1519 1520 1521 1522 1523 1525 1526
1497 1496 1494 1495 1498 1499 1496 1479 1478 1484 1487 1489 1490 1491 1492 1493 1493 1494 1495 1496 1497 1498 1499 1499 1500 1501 1502 1503 1504 1505 1506 1507 1508 1509 1510 1511 1511 1512 1512 1513 1514 1515 1516 1516 1517 1519 1520 1521 1523
1493 1496 1497 1498 1496 1488 1494 1477 1467 1477 1482 1484 1485 1487 1487 1489 1490 1491 1492 1493 1494 1495 1496 1496 1497 1498 1499 1500 1501 1501 1502 1503 1504 1505 1506 1507 1507 1508 1509 1509 1510 1511 1512 1513 1514 1515 1516 1518 1519
1495 1499 1498 1497 1495 1492 1490 1487 1464 1476 1475 1477 1480 1482 1483 1485 1486 1487 1488 1489 1490 1491 1492 1493 1494 1495 1495 1496 1497 1498 1499 1499 1500 1501 1502 1502 1503 1504 1505 1506 1506 1507 1508 1509 1510 1511 1512 1514 1515
1500 1499 1498 1498 1494 1487 1480 1481 1461 1465 1469 1471 1475 1478 1480 1482 1483 1484 1485 1486 1487 1488 1489 1490 1490 1491 1492 1492 1493 1494 1495 1495 1496 1497 1497 1498 1499 1500 1501 1502 1502 1503 1504 1505 1506 1507 1508 1509 1510
1498 1495 1488 1483 1481 1470 1479 1479 1463 1466 1470 1472 1474 1476 1477 1479 1480 1481 1482 1483 1483 1484 1485 1486 1486 1487 1488 1488 1489 1490 1491 1491 1492 1492 1493 1493 1494 1495 1496 1497 1498 1499 1500 1501 1501 1502 1503 1504 1505
1494 1492 1486 1478 1467 1462 1478 1471 1459 1469 1471 1472 1473 1474 1475 1476 1477 1479 1479 1480 1480 1481 1481 1482 1483 1483 1484 1484 1485 1486 1487 1487 1488 1488 1489 1489 1489 1490 1491 1492 1493 1494 1495 1496 1497 1498 1498 1499 1500
1493 1491 1491 1488 1487 1481 1461 1462 1462 1467 1469 1470 1471 1472 1473 1474 1475 1476 1476 1477 1477 1478 1478 1479 1479 1480 1480 1480 1481 1482 1482 1483 1484 1484 1485 1485 1485 1486 1487 1488 1489 1490 1491 1491 1492 1492 1493 1494 1495
1494 1491 1492 1488 1480 1468 1456 1455 1451 1459 1463 1467 1469 1469 1470 1471 1472 1473 1474 1474 1475 1475 1475 1476 1476 1476 1476 1477 1477 1478 1478 1479 1480 1480 1480 1480 1481 1482 1482 1483 1484 1485 1485 1486 1487 1487 1488 1489 1490
1493 1493 1489 1483 1480 1470 1457 1448 1455 1457 1460 1463 1465 1466 1467 1469 1469 1470 1470 1471 1472 1472 1472 1472 1472 1472 1473 1473 1474 1474 1475 1475 1475 1476 1476 1476 1476 1477 1477 1478 1479 1480 1480 1481 1482 1482 1483 1484 1484
1488 1485 1485 1481 1478 1479 1466 1454 1461 1461 1462 1463 1464 1465 1466 1466 1467 1467 1467 1467 1468 1468 1468 1468 1468 1469 1469 1469 1470 1470 1470 1471 1471 1471 1471 1471 1472 1472 1472 1473 1474 1475 1475 1476 1476 1477 1477 1478 1478